LHA1085 EDDH-EDDP

Flight info

Callsign LHA1085
Flight time 0h 42m
Altitude 23000
Route AMLUH2G AMLUH M852 DENIX Z113 SAS Z88 UPDAT T236 ADMOS T959 KOJEC KOJEC1V
Aircraft A359/H-SDE2E3GHIJ3J4J5LM1ORWXY/LB1D1

Departure

Time 2026-04-25 06:11
Airport Hamburg Helmut Schmidt Airport (EDDH)

Arrival

Time 2026-04-25 06:53
Airport Leipzig/Halle Airport (EDDP)
Time Latitude Longitude Altitude Speed Heading
2026-04-25 05:59 53.62893 10.00211 55 ft 0 kts 124°
2026-04-25 06:02 53.62902 10.00187 48 ft 4 kts 121°
2026-04-25 06:02 53.62916 10.00149 51 ft 3 kts 122°
2026-04-25 06:02 53.62926 10.00125 47 ft 4 kts 162°
2026-04-25 06:02 53.62947 10.00132 47 ft 4 kts 213°
2026-04-25 06:03 53.62968 10.00155 47 ft 2 kts 213°
2026-04-25 06:03 53.62969 10.00156 55 ft 0 kts 213°
2026-04-25 06:07 53.62960 10.00146 55 ft 3 kts 213°
2026-04-25 06:07 53.62928 10.00112 55 ft 8 kts 213°
2026-04-25 06:07 53.62876 10.00045 54 ft 11 kts 227°
2026-04-25 06:08 53.62825 9.99914 52 ft 16 kts 242°
2026-04-25 06:08 53.62861 9.99755 51 ft 13 kts 327°
2026-04-25 06:08 53.62865 9.99751 51 ft 0 kts 329°
2026-04-25 06:10 53.62866 9.99750 51 ft 1 kts 329°
2026-04-25 06:10 53.62954 9.99664 45 ft 35 kts 330°
2026-04-25 06:10 53.63433 9.99251 49 ft 115 kts 333°
2026-04-25 06:10 53.64308 9.98467 249 ft 157 kts 332°
2026-04-25 06:11 53.65228 9.97659 1223 ft 146 kts 329°
2026-04-25 06:11 53.66195 9.96832 1706 ft 170 kts 330°
2026-04-25 06:11 53.67355 9.95845 2159 ft 195 kts 330°
2026-04-25 06:11 53.68599 9.94917 3126 ft 193 kts 339°
2026-04-25 06:12 53.69903 9.94684 4326 ft 188 kts 355°
2026-04-25 06:12 53.71207 9.95265 5178 ft 206 kts 20°
2026-04-25 06:12 53.72277 9.96994 5972 ft 227 kts 49°
2026-04-25 06:12 53.73089 9.99306 6902 ft 232 kts 53°
2026-04-25 06:13 53.73755 10.01871 7812 ft 245 kts 68°
2026-04-25 06:13 53.73771 10.04825 8632 ft 267 kts 100°
2026-04-25 06:13 53.72985 10.07861 9064 ft 299 kts 117°
2026-04-25 06:14 53.71129 10.13136 10366 ft 321 kts 119°
2026-04-25 06:14 53.69514 10.17615 10976 ft 355 kts 125°
2026-04-25 06:14 53.67688 10.20602 11326 ft 377 kts 150°
2026-04-25 06:14 53.66071 10.21854 11784 ft 381 kts 166°
2026-04-25 06:15 53.63511 10.23047 12698 ft 384 kts 170°
2026-04-25 06:15 53.60939 10.24145 13587 ft 389 kts 170°
2026-04-25 06:15 53.58302 10.25294 14440 ft 395 kts 170°
2026-04-25 06:15 53.55629 10.26484 15317 ft 399 kts 169°
2026-04-25 06:16 53.52933 10.27700 16153 ft 403 kts 169°
2026-04-25 06:16 53.50214 10.28931 16937 ft 408 kts 169°
2026-04-25 06:16 53.47456 10.30183 17756 ft 412 kts 169°
2026-04-25 06:16 53.44675 10.31449 18533 ft 417 kts 169°
2026-04-25 06:17 53.41858 10.32730 19311 ft 422 kts 169°
2026-04-25 06:17 53.39009 10.34027 20104 ft 426 kts 169°
2026-04-25 06:17 53.36137 10.35322 20895 ft 430 kts 169°
2026-04-25 06:17 53.33231 10.36624 21677 ft 434 kts 169°
2026-04-25 06:18 53.30302 10.37936 22447 ft 437 kts 169°
2026-04-25 06:18 53.27345 10.39257 23147 ft 442 kts 169°
2026-04-25 06:18 53.24360 10.40589 23750 ft 447 kts 169°
2026-04-25 06:18 53.21354 10.41930 24035 ft 448 kts 169°
2026-04-25 06:19 53.18286 10.43295 24089 ft 467 kts 169°
2026-04-25 06:19 53.15075 10.44652 24081 ft 482 kts 172°
2026-04-25 06:19 53.11747 10.45303 24082 ft 480 kts 182°
2026-04-25 06:19 53.08414 10.45323 24090 ft 478 kts 185°
2026-04-25 06:20 53.05089 10.45115 24088 ft 477 kts 187°
2026-04-25 06:20 53.01777 10.44787 24099 ft 476 kts 188°
2026-04-25 06:20 52.98472 10.44417 24102 ft 476 kts 188°
2026-04-25 06:20 52.95167 10.44039 24101 ft 476 kts 188°
2026-04-25 06:21 52.91863 10.43672 24101 ft 476 kts 188°
2026-04-25 06:21 52.88561 10.43320 24102 ft 476 kts 187°
2026-04-25 06:21 52.85263 10.42982 24097 ft 476 kts 187°
2026-04-25 06:21 52.81957 10.42652 24104 ft 475 kts 187°
2026-04-25 06:22 52.78656 10.42328 24110 ft 475 kts 187°
2026-04-25 06:22 52.75362 10.41992 24109 ft 474 kts 188°
2026-04-25 06:22 52.72125 10.41122 24110 ft 468 kts 198°
2026-04-25 06:22 52.69098 10.39287 24110 ft 461 kts 210°
2026-04-25 06:23 52.66342 10.36655 24110 ft 457 kts 216°
2026-04-25 06:23 52.63699 10.33749 24116 ft 456 kts 219°
2026-04-25 06:23 52.61118 10.30715 24119 ft 455 kts 220°
2026-04-25 06:23 52.58571 10.27645 24119 ft 455 kts 220°
2026-04-25 06:24 52.56015 10.24554 24126 ft 455 kts 220°
2026-04-25 06:24 52.53460 10.21490 24129 ft 455 kts 219°
2026-04-25 06:24 52.50891 10.18442 24128 ft 455 kts 219°
2026-04-25 06:24 52.48313 10.15409 24130 ft 456 kts 219°
2026-04-25 06:25 52.45732 10.12391 24124 ft 456 kts 219°
2026-04-25 06:25 52.43148 10.09380 24121 ft 456 kts 219°
2026-04-25 06:25 52.40563 10.06376 24119 ft 456 kts 219°
2026-04-25 06:25 52.37975 10.03372 24118 ft 456 kts 219°
2026-04-25 06:26 52.35388 10.00371 24120 ft 456 kts 219°
2026-04-25 06:26 52.32772 9.97437 24119 ft 458 kts 215°
2026-04-25 06:26 52.29921 9.95081 24129 ft 463 kts 205°
2026-04-25 06:26 52.26804 9.93644 24128 ft 469 kts 193°
2026-04-25 06:27 52.23533 9.93361 24129 ft 474 kts 179°
2026-04-25 06:27 52.20276 9.94339 24127 ft 480 kts 165°
2026-04-25 06:27 52.17204 9.96539 24132 ft 484 kts 153°
2026-04-25 06:27 52.14295 9.99311 24128 ft 485 kts 150°
2026-04-25 06:28 52.11453 10.02290 24128 ft 486 kts 148°
2026-04-25 06:28 52.08640 10.05341 24123 ft 486 kts 148°
2026-04-25 06:28 52.05829 10.08397 24109 ft 486 kts 148°
2026-04-25 06:28 52.03010 10.11426 24108 ft 486 kts 148°
2026-04-25 06:29 52.00180 10.14423 24110 ft 486 kts 149°
2026-04-25 06:29 51.97341 10.17396 24110 ft 486 kts 149°
2026-04-25 06:29 51.94617 10.20656 24109 ft 488 kts 140°
2026-04-25 06:29 51.92302 10.24686 24108 ft 490 kts 127°
2026-04-25 06:30 51.90423 10.29298 24109 ft 491 kts 122°
2026-04-25 06:30 51.88719 10.34099 24109 ft 492 kts 119°
2026-04-25 06:30 51.87108 10.38983 24108 ft 492 kts 118°
2026-04-25 06:30 51.85532 10.43895 24109 ft 492 kts 117°
2026-04-25 06:31 51.83957 10.48815 24110 ft 493 kts 118°
2026-04-25 06:31 51.82370 10.53724 24109 ft 493 kts 118°
2026-04-25 06:31 51.80766 10.58620 24111 ft 493 kts 118°
2026-04-25 06:31 51.79147 10.63512 24107 ft 494 kts 118°
2026-04-25 06:32 51.77518 10.68401 24110 ft 495 kts 119°
2026-04-25 06:32 51.75884 10.73287 24111 ft 495 kts 119°
2026-04-25 06:32 51.74249 10.78172 24107 ft 495 kts 119°
2026-04-25 06:32 51.72680 10.83117 24100 ft 496 kts 114°
2026-04-25 06:33 51.71319 10.88228 24100 ft 495 kts 113°
2026-04-25 06:33 51.70020 10.93378 24099 ft 496 kts 112°
2026-04-25 06:33 51.68755 10.98546 24101 ft 496 kts 111°
2026-04-25 06:33 51.67501 11.03733 24102 ft 497 kts 111°
2026-04-25 06:34 51.66248 11.08920 24099 ft 498 kts 111°
2026-04-25 06:34 51.64987 11.14116 24102 ft 498 kts 111°
2026-04-25 06:34 51.63722 11.19303 24096 ft 498 kts 111°
2026-04-25 06:34 51.62389 11.24443 24099 ft 498 kts 117°
2026-04-25 06:35 51.60621 11.29224 24009 ft 494 kts 124°
2026-04-25 06:35 51.58692 11.33739 23753 ft 483 kts 126°
2026-04-25 06:35 51.56777 11.38092 23358 ft 471 kts 127°
2026-04-25 06:35 51.54881 11.42365 22641 ft 468 kts 126°
2026-04-25 06:36 51.53067 11.46684 21947 ft 465 kts 120°
2026-04-25 06:36 51.51861 11.51458 21284 ft 460 kts 102°
2026-04-25 06:36 51.51523 11.56519 20381 ft 457 kts 87°
2026-04-25 06:36 51.51740 11.61550 19418 ft 459 kts 82°
2026-04-25 06:37 51.52049 11.66639 18662 ft 455 kts 82°
2026-04-25 06:37 51.52344 11.71617 17964 ft 450 kts 82°
2026-04-25 06:37 51.52619 11.76636 17254 ft 444 kts 83°
2026-04-25 06:37 51.52877 11.81484 16561 ft 439 kts 83°
2026-04-25 06:38 51.53124 11.86332 15863 ft 434 kts 83°
2026-04-25 06:38 51.53365 11.91139 15165 ft 429 kts 83°
2026-04-25 06:38 51.53600 11.95883 14470 ft 424 kts 83°
2026-04-25 06:38 51.53831 12.00573 13775 ft 418 kts 83°
2026-04-25 06:39 51.54054 12.05200 13083 ft 413 kts 83°
2026-04-25 06:39 51.54271 12.09777 12405 ft 408 kts 83°
2026-04-25 06:39 51.54484 12.14298 11726 ft 403 kts 83°
2026-04-25 06:39 51.54693 12.18748 11267 ft 393 kts 83°
2026-04-25 06:40 51.54890 12.23017 11148 ft 374 kts 83°
2026-04-25 06:40 51.55078 12.27073 11038 ft 356 kts 82°
2026-04-25 06:40 51.55255 12.30938 10918 ft 338 kts 82°
2026-04-25 06:40 51.55421 12.34619 10802 ft 323 kts 82°
2026-04-25 06:41 51.55588 12.38146 10647 ft 310 kts 82°
2026-04-25 06:41 51.55737 12.41535 10518 ft 299 kts 82°
2026-04-25 06:41 51.55884 12.44833 10213 ft 294 kts 82°
2026-04-25 06:41 51.56035 12.48109 9875 ft 299 kts 81°
2026-04-25 06:42 51.56195 12.51525 9737 ft 311 kts 82°
2026-04-25 06:42 51.56348 12.54981 9454 ft 309 kts 82°
2026-04-25 06:42 51.56497 12.58435 8938 ft 311 kts 82°
2026-04-25 06:42 51.56649 12.61895 8483 ft 309 kts 82°
2026-04-25 06:43 51.56795 12.65319 8117 ft 305 kts 82°
2026-04-25 06:43 51.56937 12.68705 7787 ft 302 kts 82°
2026-04-25 06:43 51.57033 12.72068 7462 ft 302 kts 89°
2026-04-25 06:43 51.56535 12.75336 7136 ft 306 kts 117°
2026-04-25 06:44 51.55139 12.77846 6802 ft 301 kts 148°
2026-04-25 06:44 51.53217 12.78957 6491 ft 292 kts 178°
2026-04-25 06:44 51.51203 12.79072 6172 ft 288 kts 182°
2026-04-25 06:44 51.49205 12.79093 5863 ft 285 kts 189°
2026-04-25 06:45 51.47358 12.78198 5564 ft 273 kts 216°
2026-04-25 06:45 51.46030 12.76159 5276 ft 260 kts 242°
2026-04-25 06:45 51.45421 12.73517 4981 ft 250 kts 265°
2026-04-25 06:45 51.45256 12.70757 4683 ft 247 kts 270°
2026-04-25 06:46 51.45166 12.68038 4457 ft 241 kts 270°
2026-04-25 06:46 51.45075 12.65413 4313 ft 230 kts 269°
2026-04-25 06:46 51.44973 12.62929 4208 ft 217 kts 269°
2026-04-25 06:46 51.44872 12.60594 4109 ft 204 kts 269°
2026-04-25 06:47 51.44777 12.58402 4027 ft 191 kts 270°
2026-04-25 06:47 51.44691 12.56360 3978 ft 176 kts 270°
2026-04-25 06:47 51.44645 12.54477 3877 ft 164 kts 274°
2026-04-25 06:47 51.44589 12.52680 3670 ft 159 kts 268°
2026-04-25 06:48 51.44492 12.50939 3421 ft 155 kts 270°
2026-04-25 06:48 51.44419 12.49237 3200 ft 150 kts 270°
2026-04-25 06:48 51.44342 12.47599 2997 ft 144 kts 270°
2026-04-25 06:48 51.44269 12.46032 2809 ft 138 kts 270°
2026-04-25 06:49 51.44199 12.44532 2631 ft 132 kts 269°
2026-04-25 06:49 51.44131 12.43107 2460 ft 124 kts 269°
2026-04-25 06:49 51.44069 12.41761 2310 ft 119 kts 270°
2026-04-25 06:49 51.44008 12.40436 2139 ft 119 kts 269°
2026-04-25 06:50 51.43947 12.39135 1982 ft 119 kts 269°
2026-04-25 06:50 51.43885 12.37804 1823 ft 120 kts 269°
2026-04-25 06:50 51.43822 12.36470 1671 ft 121 kts 268°
2026-04-25 06:50 51.43759 12.35124 1504 ft 121 kts 268°
2026-04-25 06:51 51.43696 12.33782 1342 ft 121 kts 268°
2026-04-25 06:51 51.43634 12.32447 1174 ft 120 kts 269°
2026-04-25 06:51 51.43571 12.31113 1023 ft 121 kts 268°
2026-04-25 06:51 51.43508 12.29773 853 ft 120 kts 268°
2026-04-25 06:52 51.43445 12.28432 693 ft 121 kts 268°
2026-04-25 06:52 51.43382 12.27086 545 ft 121 kts 268°
2026-04-25 06:52 51.43319 12.25771 457 ft 113 kts 267°
2026-04-25 06:52 51.43274 12.24776 452 ft 51 kts 266°
2026-04-25 06:53 51.43262 12.24442 448 ft 27 kts 267°
2026-04-25 06:53 51.43200 12.24198 448 ft 24 kts 197°
2026-04-25 06:53 51.43047 12.24188 447 ft 18 kts 175°
2026-04-25 06:53 51.42978 12.24212 449 ft 0 kts 148°
2026-04-25 06:56 51.42972 12.24210 449 ft 3 kts 179°
2026-04-25 06:56 51.42942 12.24151 449 ft 12 kts 248°
2026-04-25 06:56 51.42918 12.23939 447 ft 24 kts 268°
2026-04-25 06:56 51.42909 12.23670 441 ft 25 kts 266°
2026-04-25 06:57 51.42897 12.23379 437 ft 27 kts 266°
2026-04-25 06:57 51.42886 12.23089 443 ft 27 kts 265°
2026-04-25 06:57 51.42871 12.22812 437 ft 27 kts 266°
2026-04-25 06:57 51.42856 12.22515 443 ft 27 kts 265°
2026-04-25 06:58 51.42840 12.22208 437 ft 28 kts 266°
2026-04-25 06:58 51.42827 12.21886 437 ft 30 kts 266°
2026-04-25 06:58 51.42810 12.21552 434 ft 30 kts 265°
2026-04-25 06:58 51.42797 12.21336 428 ft 15 kts 259°
2026-04-25 06:59 51.42728 12.21225 440 ft 16 kts 202°
2026-04-25 06:59 51.42617 12.21169 442 ft 18 kts 193°
2026-04-25 06:59 51.42488 12.21113 437 ft 21 kts 197°
2026-04-25 06:59 51.42341 12.21049 440 ft 23 kts 194°
2026-04-25 07:00 51.42167 12.20975 432 ft 28 kts 195°
2026-04-25 07:00 51.42018 12.20947 430 ft 18 kts 149°
2026-04-25 07:00 51.41964 12.21119 436 ft 18 kts 107°
2026-04-25 07:00 51.41931 12.21315 440 ft 19 kts 105°
2026-04-25 07:01 51.41897 12.21518 442 ft 19 kts 105°
2026-04-25 07:01 51.41858 12.21742 442 ft 23 kts 106°
2026-04-25 07:01 51.41825 12.21948 437 ft 11 kts 87°
2026-04-25 07:01 51.41880 12.22015 442 ft 10 kts 19°
2026-04-25 07:02 51.41895 12.22023 442 ft 0 kts 17°